C/2015 O1 ( PanSTARRS )

Japanese version
Home page
Updated on June 14, 2021

---------------------------------------------------------------------

* Profile

Discovery Date July 19, 2015
Magnitude 19.6 mag
Discoverer Pan-STARRS 1 telescope (Haleakala)

* Pictures

* Orbital Elements

Epoch 2018 Feb. 11.0 TT = JDT 2458160.5
T 2018 Feb. 19.02352 TT                                 Rudenko
q   3.7297438            (2000.0)            P               Q
z  -0.0000396      Peri.   89.59261     -0.52093686     -0.50153224
                   Node   299.85559     -0.59865022     +0.79148000
e   1.0001479      Incl.  127.21088     +0.60847572     +0.34932051
From 3483 observations 2015 July 21-2020 Feb. 27, mean residual 0".8.
     Nongravitational parameters A1 = +7.99, A2 = -2.0505.

* Finding Charts

* Magnitudes Graph

        m1 = 4.0 + 5 log d + 11.0 log r  [ ,0]  (             - 2018 Feb. 19)
        m1 = 2.8 + 5 log d + 13.0 log r  [0, ]  (2018 Feb. 19 -             )

---------------------------------------------------------------------

The orbital elements are published on M.P.E.C. 2020-G65.
The charts are made with StellaNavigator Ver.8 (AstroArts).
The magnitudes graphs are made with Comet for Windows.

---------------------------------------------------------------------

Copyright(C) Seiichi Yoshida (comet@aerith.net). All rights reserved.